This demonstration page uses our WeatherBlox Daily Observations layout. Learn more.

Left ArrowRight Arrow

30.21309, -93.2044

Hourly Observations for July 19, 2021

Temp ( °F °C ) Dew Point ( °F °C ) Humidity (%) Winds ( mph kmh ) Pressure ( in mb ) Visibility ( mi km ) Precip ( " mm )
12:15 am 00:15 Clear 79 26.1 76 24.6 91 91 Calm 30.07 1018 10 16 0.00 0.00
12:35 am 00:35 Clear 79 26.2 76 24.6 91 91 S 3 6 30.07 1018 10 16 0.00 0.00
12:55 am 00:55 Partly Cloudy 78 25.8 76 24.4 92 92 Calm 30.07 1018 10 16 0.00 0.00
1:15 am 01:15 Mostly Cloudy 79 26.2 77 24.8 92 92 Calm 30.07 1018 10 16 0.00 0.00
1:35 am 01:35 Mostly Cloudy 79 26.2 76 24.7 91 91 Calm 30.06 1018 10 16 0.00 0.00
1:55 am 01:55 Partly Cloudy 79 26.2 76 24.7 91 91 SSE 3 6 30.06 1018 10 16 0.00 0.00
2:15 am 02:15 Partly Cloudy 79 26.2 76 24.6 91 91 SSW 3 6 30.06 1018 10 16 0.00 0.00
2:35 am 02:35 Partly Cloudy with Light Rain 79 26.1 73 22.7 82 82 SSW 7 11 30.06 1018 10 16 0.00 0.00
2:55 am 02:55 Partly Cloudy 78 25.8 73 22.5 82 82 WSW 3 6 30.06 1018 10 16 0.00 0.00
3:15 am 03:15 Partly Cloudy 80 26.6 74 23.1 81 81 SW 15 24 30.05 1018 10 16 0.00 0.00
3:35 am 03:35 Partly Cloudy with Light Rain 78 25.6 74 23.1 86 86 SW 6 9 30.05 1018 10 16 0.00 0.00
3:55 am 03:55 Partly Cloudy 78 25.3 73 22.6 85 85 WSW 5 7 30.05 1018 10 16 0.00 0.00
4:15 am 04:15 Clear 76 24.6 73 22.6 89 89 Calm 30.05 1018 10 16 0.00 0.00
4:35 am 04:35 Clear 76 24.5 73 22.5 89 89 Calm 30.05 1018 10 16 0.00 0.00
4:55 am 04:55 Clear 76 24.7 73 22.5 88 88 Calm 30.04 1017 10 16 0.00 0.00
5:15 am 05:15 Clear with Mist and Fog 76 24.5 73 22.6 89 89 Calm 30.04 1017 7 11 0.00 0.00
5:35 am 05:35 Clear with Mist and Fog 77 25.1 73 22.9 88 88 Calm 30.04 1017 4 6 0.00 0.00
6:00 am 06:00 Mostly Clear 75 24 73 23 94 94 Calm 30.04 1017 10 16 0.00 0.00
6:50 am 06:50 Mostly Sunny 75 24 73 23 94 94 Calm 30.04 1017 10 16 0.00 0.00
7:50 am 07:50 Partly Cloudy 81 27 75 24 84 84 SSW 3 6 30.05 1018 10 16 0.00 0.00
8:50 am 08:50 Partly Cloudy 84 29 79 26 84 84 SW 8 13 30.06 1018 10 16 0.00 0.00
9:50 am 09:50 Mostly Cloudy with Showers 84 29 77 25 79 79 SW 12 19 30.06 1018 10 16 0.00 0.00
10:55 am 10:55 Mostly Cloudy 88 31 77 25 70 70 SW 13 20 30.06 1018 10 16 0.00 0.00
11:50 am 11:50 Mostly Cloudy 86 30 75 24 70 70 WSW 8 13 30.04 1017 10 16 0.00 0.00
12:55 pm 12:55 Mostly Cloudy with Thunderstorms 86 30 77 25 75 75 WSW 8 13 30.05 1018 10 16 0.00 0.00
1:47 pm 13:47 Mostly Cloudy with Thunderstorms 84 29 77 25 79 79 E 12 19 30.02 1017 10 16 0.00 0.00
2:55 pm 14:55 Mostly Cloudy with Thunderstorms 84 29 77 25 79 79 N 7 11 29.99 1016 10 16 0.00 0.00
3:47 pm 15:47 Mostly Cloudy with Thunderstorms 84 29 75 24 74 74 SSE 6 9 29.98 1015 3 5 0.00 0.00
4:55 pm 16:55 Mostly Cloudy with Thunderstorms 84 29 73 23 70 70 W 9 15 30.00 1016 10 16 0.00 0.00
5:49 pm 17:49 Mostly Cloudy with Light Rain 79 26 75 24 89 89 NNW 9 15 30.00 1016 7 11 0.00 0.00
6:46 pm 18:46 Mostly Sunny 77 25 73 23 89 89 Calm 29.96 1015 10 16 0.00 0.00
7:55 pm 19:55 Mostly Sunny 79 26 75 24 89 89 E 6 9 29.98 1015 10 16 0.00 0.00
8:55 pm 20:55 Mostly Clear 75 24 73 23 94 94 E 5 7 29.98 1015 10 16 0.00 0.00
9:46 pm 21:46 Cloudy 75 24 73 23 94 94 Calm 29.99 1016 10 16 0.00 0.00
10:15 pm 22:15 Partly Cloudy 76 24.6 74 23.3 93 93 Calm 29.99 1016 10 16 0.00 0.00
10:35 pm 22:35 Mostly Cloudy 77 24.8 74 23.4 92 92 Calm 30.00 1016 10 16 0.00 0.00
10:55 pm 22:55 Partly Cloudy 77 24.8 74 23.4 92 92 Calm 29.99 1016 10 16 0.00 0.00
11:15 pm 23:15 Clear with Nearby Thunderstorms 77 24.8 74 23.4 92 92 Calm 29.99 1016 10 16 0.00 0.00
11:35 pm 23:35 Clear with Nearby Thunderstorms 76 24.7 74 23.5 93 93 Calm 29.98 1015 10 16 0.00 0.00
11:55 pm 23:55 Clear 76 24.6 74 23.4 93 93 N 3 6 29.98 1015 10 16 0.00 0.00

Powered by AerisWeather